Total_Precipitation_Accumulation
2.13 2.45 2.92 3.36 3.86 3.98 4.12 4.11 4.25 4.53 4.72 4.90 4.97 5.34 5.36 5.20 5.32 5.56 5.52 5.67 5.74 5.45 5.34 5.19 5.05 4.82 4.61 4.47 4.30 4.08 3.89 3.58 3.46 3.32 3.04 2.61 2.26 2.22 2.20 2.11 2.19 2.22 2.18
2.34 2.52 3.04 3.43 3.85 4.11 4.26 4.46 4.62 4.69 4.84 5.33 5.77 6.14 6.48 6.46 6.37 6.51 6.52 6.33 6.20 6.04 5.80 5.75 5.48 5.10 4.82 4.52 4.27 4.03 3.72 3.40 3.39 3.45 3.55 3.07 2.64 2.12 1.80 1.84 1.87 1.88 1.90
2.65 2.58 2.73 3.10 3.53 3.91 4.14 4.39 4.72 5.10 5.63 6.27 6.72 7.01 7.34 7.47 7.21 6.93 6.74 6.50 6.32 6.11 5.68 5.46 5.36 5.07 4.57 4.28 4.11 3.89 3.67 3.42 3.29 3.26 3.54 3.31 2.90 2.42 2.07 1.81 1.68 1.71 1.83
2.41 2.56 2.62 2.86 3.18 3.49 3.86 4.29 4.73 5.37 6.27 6.96 7.36 7.74 7.91 7.91 7.70 7.39 6.93 6.49 6.10 5.69 5.30 5.03 4.76 4.50 4.15 3.93 3.67 3.58 3.54 3.46 3.24 3.15 2.98 2.78 2.64 2.65 2.42 2.09 1.88 1.81 1.82
2.15 2.25 2.34 2.52 2.91 3.29 3.67 4.12 4.59 5.34 6.08 6.72 7.31 7.77 7.94 7.88 7.60 7.11 6.54 6.00 5.53 5.05 4.57 4.26 3.99 3.76 3.50 3.28 3.07 3.06 3.13 3.17 3.08 3.03 2.94 2.82 2.72 2.58 2.45 2.33 2.24 2.13 1.96
2.23 2.23 2.21 2.29 2.54 2.92 3.30 3.76 4.20 4.79 5.44 5.91 6.51 6.90 7.08 6.97 6.54 5.94 5.31 4.92 4.66 4.31 3.91 3.56 3.31 3.02 2.80 2.63 2.55 2.49 2.50 2.62 2.67 2.72 2.70 2.69 2.79 2.73 2.70 2.53 2.39 2.32 2.16
2.35 2.24 2.21 2.22 2.38 2.64 2.97 3.28 3.51 4.00 4.35 4.70 5.21 5.56 5.60 5.44 5.12 4.81 4.56 4.16 3.72 3.31 3.05 2.77 2.56 2.33 2.23 2.22 2.26 2.24 2.23 2.25 2.31 2.41 2.48 2.48 2.50 2.54 2.72 2.85 2.65 2.41 2.15
2.16 2.14 2.12 2.20 2.29 2.32 2.54 2.72 2.79 3.03 3.29 3.51 3.76 3.88 3.90 3.89 3.85 3.75 3.44 3.06 2.64 2.29 2.17 2.11 1.92 1.84 1.84 1.83 1.93 1.96 2.01 2.06 2.07 2.02 2.18 2.31 2.24 2.20 2.34 2.60 2.68 2.56 2.30
2.00 2.04 2.11 2.23 2.26 2.16 2.16 2.25 2.33 2.39 2.50 2.59 2.73 2.80 2.82 2.89 2.87 2.82 2.66 2.41 2.20 1.94 1.81 1.76 1.73 1.68 1.69 1.68 1.71 1.71 1.67 1.76 1.85 1.84 1.95 2.04 2.00 1.94 1.94 2.10 2.29 2.45 2.39
2.09 2.03 1.99 2.06 2.10 1.96 1.93 2.04 2.14 2.10 2.11 2.07 2.07 2.00 2.15 2.21 2.23 2.16 1.99 1.96 1.96 1.85 1.73 1.62 1.57 1.51 1.46 1.45 1.56 1.57 1.55 1.55 1.56 1.59 1.70 1.75 1.69 1.72 1.71 1.76 1.87 2.08 2.24
2.12 2.13 2.08 1.98 1.94 1.91 1.88 1.79 1.80 1.80 1.77 1.75 1.82 1.78 1.75 1.75 1.71 1.59 1.51 1.55 1.60 1.58 1.52 1.36 1.30 1.27 1.24 1.25 1.37 1.42 1.43 1.44 1.42 1.37 1.37 1.42 1.46 1.56 1.49 1.53 1.62 1.77 1.96
2.22 2.14 2.13 2.01 1.92 1.80 1.72 1.64 1.61 1.58 1.58 1.60 1.65 1.57 1.51 1.49 1.49 1.44 1.35 1.33 1.38 1.37 1.34 1.26 1.16 1.10 1.13 1.22 1.25 1.23 1.23 1.28 1.26 1.24 1.25 1.25 1.30 1.41 1.44 1.45 1.45 1.55 1.71
2.56 2.32 2.14 1.89 1.73 1.59 1.47 1.41 1.43 1.45 1.49 1.55 1.58 1.56 1.47 1.39 1.34 1.31 1.22 1.12 1.17 1.22 1.21 1.19 1.17 1.14 1.09 1.11 1.10 1.08 1.13 1.18 1.20 1.20 1.17 1.15 1.23 1.27 1.29 1.31 1.33 1.37 1.38
2.13 1.93 1.80 1.66 1.60 1.49 1.40 1.34 1.29 1.28 1.29 1.36 1.44 1.46 1.43 1.36 1.26 1.23 1.23 1.18 1.16 1.12 1.05 1.05 1.09 1.07 1.01 1.00 1.00 1.00 1.09 1.18 1.13 1.06 1.06 1.08 1.06 1.08 1.15 1.16 1.26 1.35 1.44
1.94 1.81 1.74 1.69 1.60 1.50 1.38 1.27 1.21 1.18 1.16 1.23 1.25 1.23 1.22 1.21 1.13 1.10 1.15 1.14 1.15 1.09 1.08 1.04 1.01 0.99 0.96 0.91 0.93 0.94 0.92 1.06 1.07 1.03 1.01 0.95 0.93 0.93 0.97 0.96 1.08 1.25 1.43
2.10 1.99 1.91 1.81 1.66 1.46 1.38 1.32 1.26 1.23 1.21 1.20 1.16 1.09 1.07 1.05 0.98 0.96 0.95 0.97 1.02 1.08 1.10 1.08 1.03 0.96 0.87 0.93 0.91 0.80 0.83 0.96 1.01 1.05 1.02 0.92 0.84 0.77 0.79 0.78 0.84 1.03 1.24
2.17 2.14 2.06 1.96 1.79 1.61 1.51 1.40 1.34 1.26 1.24 1.23 1.10 1.01 1.01 0.99 0.94 0.89 0.94 0.94 0.97 1.05 1.11 1.12 1.11 1.01 0.93 0.96 0.87 0.80 0.79 0.90 1.05 1.10 1.06 0.87 0.74 0.82 0.81 0.81 0.78 0.82 0.92
2.19 2.13 2.05 1.92 1.84 1.70 1.52 1.34 1.20 1.15 1.23 1.25 1.13 1.00 0.98 0.98 0.96 0.97 1.02 1.05 1.02 1.04 1.13 1.16 1.11 1.04 0.96 0.94 0.86 0.81 0.79 0.82 0.92 0.97 0.98 1.04 1.04 0.90 0.85 0.79 0.83 0.91 0.97
2.18 2.12 1.98 1.86 1.79 1.62 1.42 1.26 1.22 1.15 1.15 1.14 1.06 0.94 0.88 0.91 0.90 0.91 0.96 1.01 1.04 1.06 1.11 1.10 1.11 1.09 1.00 0.89 0.83 0.87 0.84 0.80 0.80 0.78 0.81 0.89 0.94 0.88 0.80 0.80 0.92 1.01 1.04
2.23 2.16 1.92 1.75 1.65 1.41 1.21 1.14 1.12 1.06 1.02 0.94 0.88 0.82 0.85 0.85 0.84 0.86 0.91 0.99 1.03 1.03 1.03 1.06 1.10 1.09 1.03 0.84 0.72 0.77 0.78 0.79 0.78 0.82 0.84 0.81 0.76 0.78 0.75 0.80 0.99 1.09 1.07
2.00 1.90 1.76 1.63 1.42 1.22 1.15 1.17 1.07 0.93 0.80 0.74 0.77 0.80 0.85 0.88 0.83 0.89 0.94 0.98 0.99 1.05 1.06 1.03 1.02 1.00 0.89 0.73 0.63 0.63 0.65 0.73 0.77 0.85 0.89 0.82 0.70 0.69 0.68 0.75 0.92 1.08 1.16
1.75 1.65 1.59 1.48 1.33 1.20 1.20 1.25 1.11 0.89 0.77 0.77 0.80 0.83 0.85 0.73 0.70 0.89 0.93 0.90 0.98 1.04 1.01 0.98 0.94 0.88 0.80 0.64 0.55 0.53 0.55 0.62 0.72 0.90 0.86 0.77 0.72 0.63 0.63 0.71 0.89 1.01 1.25
1.54 1.40 1.30 1.32 1.33 1.28 1.25 1.28 1.15 0.95 0.88 0.95 0.94 0.88 0.86 0.86 0.88 0.91 0.88 0.87 0.90 0.86 0.75 0.73 0.76 0.73 0.73 0.68 0.56 0.50 0.50 0.56 0.61 0.79 0.83 0.77 0.74 0.71 0.83 0.92 1.04 1.17 1.39
1.34 1.31 1.26 1.28 1.29 1.23 1.12 1.17 1.08 0.98 1.01 1.03 0.96 0.90 0.92 0.99 0.98 0.90 0.76 0.73 0.72 0.69 0.67 0.67 0.68 0.67 0.65 0.56 0.48 0.46 0.50 0.55 0.58 0.70 0.85 0.94 0.95 0.96 1.07 1.17 1.28 1.37 1.46
1.07 1.15 1.25 1.20 1.12 1.08 0.97 0.94 0.96 0.96 1.09 1.08 0.97 0.88 0.81 0.82 0.86 0.73 0.59 0.57 0.55 0.55 0.62 0.68 0.68 0.67 0.59 0.47 0.47 0.45 0.47 0.54 0.61 0.69 0.90 1.09 1.15 1.21 1.27 1.28 1.33 1.39 1.36
0.89 0.98 1.03 1.00 0.99 0.97 0.93 0.90 0.86 0.85 1.02 1.04 0.94 0.80 0.67 0.63 0.59 0.54 0.54 0.51 0.46 0.47 0.51 0.59 0.56 0.48 0.48 0.45 0.42 0.46 0.52 0.59 0.70 0.77 1.01 1.20 1.26 1.28 1.30 1.30 1.32 1.32 1.26